Current weather by "City, St" or "zip code"  
 

Current Conditions: Logansport/Cass County Airport, IN

Fair


54.0 F

Last Updated on Sep 18 2020, 1:56 am EDT
Humidity: 82%
Wind Speed: N 5.8 mph
Barometer 30.17 in
Dewpoint: 48.2 F
Visibility: 10.00 mi
Precip: --
Heat Index: NA
Wind Chill: 53 F
Current conditions at:

Logansport/Cass County Airport, IN (KGGP)

Lat: 40.711 Lon: 86.373

Local Radar Image active severe weather and emergency alerts image image weather storm and storm spotter reports image weather observation monitoring service image
Local
Radar
Active
Alerts
Storm Reports Obs
Monitoring

Sign-up For Email & Text Message Weather Alert Notification Services



Advertise Here

Observation History for Logansport/Cass County Airport, IN


Time Wind
(mph)
Vis
(mi)
Weather Precip (in) Temperature (F) Relative
Humidity
Wind
Chill
(F)
Heat
Index
(F)
Pressure
Air Dwpt altimeter
(in)
sea level
(mb)
Rmks
1:56 am EDT N 5.8 10.00 Fair -- 54.0 48.2 82% 53 NA 30.17 M
12:56 am EDT N 6.9 10.00 Overcast -- 54.0 48.2 82% 52 NA 30.16 M
11:56 pm EDT N 5.8 10.00 Partly Cloudy -- 55.0 48.2 77% 54 NA 30.15 M
10:57 pm EDT N 4.6 10.00 Fair -- 57.0 48.2 72% 57 NA 30.14 M
10:36 pm EDT N 5.8 10.00 Fair -- 57.0 48.2 72% 56 NA 30.14 M
9:56 pm EDT N 8.1 10.00 Fair -- 59.0 50.0 72% 58 NA 30.13 M
8:56 pm EDT N 6.9 10.00 Partly Cloudy -- 63.0 51.8 68% 63 NA 30.11 M
7:56 pm EDT N 0.0 10.00 Mostly Cloudy -- 64.0 51.8 64% NA NA 30.09 M
6:56 pm EDT NE 4.6 10.00 Overcast -- 68.0 53.6 60% NA NA 30.08 M
5:56 pm EDT NE 5.8 10.00 Overcast -- 70.0 55.4 60% NA NA 30.07 M
5:37 pm EDT NE 4.6 10.00 Overcast -- 70.0 55.4 60% NA NA 30.06 M
4:56 pm EDT E 5.8 10.00 Overcast -- 70.0 55.4 60% NA NA 30.07 M
3:56 pm EDT E 6.9 10.00 Mostly Cloudy -- 72.0 55.4 57% NA NA 30.08 M
3:37 pm EDT E 8.1 10.00 Mostly Cloudy -- 72.0 55.4 57% NA NA 30.08 M
2:56 pm EDT NE 6.9 10.00 Overcast -- 70.0 57.2 64% NA NA 30.09 M
1:56 pm EDT NE 9.2 10.00 Overcast -- 68.0 57.2 69% NA NA 30.10 M
12:56 pm EDT NE 6.9 G 17.3 10.00 Overcast -- 68.0 57.2 69% NA NA 30.11 M
12:36 pm EDT NE 8.1 10.00 Overcast -- 66.0 57.2 73% NA NA 30.11 M
11:56 am EDT NE 8.1 G 16.1 10.00 Overcast -- 66.0 57.2 73% NA NA 30.11 M
10:58 am EDT NE 4.6 10.00 Overcast -- 64.0 57.2 78% NA NA 30.09 M
9:56 am EDT E 9.2 G 16.1 10.00 Overcast -- 64.0 60.8 88% NA NA 30.08 M
8:56 am EDT NE 5.8 10.00 Overcast -- 63.0 59.0 88% 63 NA 30.06 M
8:36 am EDT NE 5.8 10.00 Overcast -- 61.0 57.2 88% 61 NA 30.06 M
7:56 am EDT NE 4.6 10.00 Mostly Cloudy -- 57.0 57.2 100% 57 NA 30.03 M

Regional Weather Observation


Rochester Fulton County Airport, IN (KRCR)

Fair
54.0 F

Grissom Air Force Base / Peru, IN (KGUS)

Mostly Cloudy
54.0 F

Kokomo, Kokomo Municipal Airport, IN (KOKK)

A Few Clouds
53.0 F

Lafayette, Purdue University Airport, IN (KLAF)

Partly Cloudy
57.0 F

Starke County Airport, IN (KOXI)

Fair
48.0 F

Rensselaer Jasper County Airport, IN (KRZL)

Fair
52.0 F